Location: Buckeye Ditch
(40.9104°N, 122.9517°W)
Time: 14:39:30
(UTC+00:00)

Transit 2A - Pass Details

Date: 26 May 2025
Orbit: 599 x 947 km, 66.7° (Epoch: 15 June)

Event Time Altitude Azimuth Distance (km) Brightness Sun altitude
Rises 15:04:16 0° 260° (W) 2,957 8.5 23.9°
Reaches altitude 10° 15:07:49 10° 288° (WNW) 1,998 7.7 24.6°
Maximum altitude 15:09:55 13° 316° (NW) 1,779 7.7 25.0°
Drops below altitude 10° 15:12:00 10° 345° (NNW) 1,961 8.1 25.4°
Sets 15:15:25 0° 14° (NNE) 2,854 9.2 26.0°
